Location: Shannon
(40.5500°S, 175.4167°E)
Time: 21:39:31
(UTC+00:00)

Meteor 2-5 Rocket - Pass Details

Date: 17 November 2025
Orbit: 832 x 911 km, 81.2° (Epoch: 06 December)

Event Time Altitude Azimuth Distance (km) Brightness Sun altitude
Rises 14:30:28 0° 186° (S) 3,548 7.7 -21.2°
Reaches altitude 10° 14:32:59 10° 181° (S) 2,610 6.9 -20.9°
Maximum altitude 14:38:52 56° 103° (ESE) 1,078 4.5 -20.2°
Drops below altitude 10° 14:44:42 10° 24° (NNE) 2,600 6.0 -19.5°
Enters shadow 14:45:59 - 22° (NNE) 3,073 6.3 -19.4°
